Terminal Aerodrome Forecast
Issued by NWS

Home | Current Version | Previous Version | Text Only | Print | Product List | Glossary On
Versions: 1 2 3 4 5 6 7 8 9 10 11 12 13 14 15 16 17 18 19 20 21 22 23 24 25 26 27 28 29 30
000
FTUS41 KOKX 260500
TAFGON
TAF
KGON 260527Z 2606/2706 27007KT P6SM BKN120
     FM260800 01006KT P6SM SCT070 OVC100
     FM261000 01006KT 6SM -RA BKN035
     FM261200 03010KT 4SM -RA OVC015
     FM261400 04017G24KT 4SM -RASN OVC009
     FM261600 04017G24KT 2SM -RASN OVC006
     FM261800 03022G32KT 1SM PLSNRA OVC004
      TEMPO 2620/2624 +RA
     FM270300 33018G25KT 6SM -SHSN OVC030=

USA.gov is the U.S. government's official web portal to all federal, state and local government web resources and services.